RH
60 59 73 74 68 57 69 96 100 100 98 74 73 73 66 64 65 72 86 90 99 99 100 99 97 99 98 99 100 98 96 96 91 84 82 78 72 85 94 86 85 78 74
58 52 81 81 92 98 94 100 100 57 65 58 65 67 67 62 73 82 92 100 100 82 95 94 98 99 99 100 100 98 97 97 95 85 68 51 68 85 93 100 99 93 88
61 61 89 88 80 67 67 84 78 55 56 55 57 58 59 69 65 39 42 46 98 80 89 91 99 100 100 100 97 96 96 96 97 70 28 36 73 99 100 100 97 97 98
70 68 58 47 42 53 60 54 53 62 60 56 56 58 39 26 28 39 37 96 73 100 88 100 99 99 99 98 96 94 87 64 41 27 24 22 54 64 98 92 90 92 83
53 43 26 32 36 40 47 49 56 58 56 63 41 25 21 26 33 42 60 96 91 97 86 100 100 100 98 89 54 26 21 21 22 21 21 25 25 32 49 64 75 76 72
21 27 28 29 39 48 49 56 54 59 51 29 20 22 27 34 44 59 70 76 93 90 100 83 70 64 39 18 19 20 21 21 19 16 12 14 12 26 32 47 66 79 90
22 26 31 39 49 52 57 58 52 33 25 19 25 31 35 42 49 56 57 72 56 46 31 25 18 16 16 15 16 16 13 11 10 10 10 10 11 15 41 52 55 70 94
32 33 43 48 54 52 44 37 32 21 22 27 28 32 38 43 44 40 32 30 24 19 16 17 15 16 16 14 13 13 13 15 14 12 10 10 9 9 11 24 47 59 76
41 47 52 55 45 39 34 26 21 25 29 30 33 37 42 41 36 32 28 23 20 19 16 16 17 17 15 13 14 17 18 15 9 7 6 4 4 4 5 9 39 43 59
48 55 47 40 36 30 25 22 29 32 34 37 42 44 44 41 37 32 28 26 21 18 19 20 18 15 14 14 16 17 13 7 6 5 3 2 2 3 4 6 7 49 67
49 43 38 35 31 25 27 34 38 40 43 46 49 49 46 43 39 31 27 22 21 21 21 19 17 16 18 19 18 12 8 7 6 3 3 2 3 4 4 5 6 75 86
39 34 34 32 28 30 37 43 46 49 53 56 55 53 49 44 32 30 25 24 23 22 21 21 22 22 21 19 14 10 10 7 4 3 3 4 4 5 5 7 6 59 86
35 35 35 32 33 42 48 50 54 62 64 62 60 56 49 35 34 29 27 25 25 24 25 25 24 23 20 16 12 12 11 6 4 4 4 4 5 6 8 49 28 60 77
37 37 36 37 45 54 60 62 67 69 69 64 57 50 35 35 33 30 27 28 29 29 28 25 24 23 20 15 14 14 10 5 4 4 5 5 6 7 8 77 99 62 91
39 39 41 46 56 69 79 80 78 76 68 57 40 33 37 37 33 31 32 32 32 30 29 28 26 24 20 16 15 15 10 5 5 6 8 8 8 10 11 67 93 100 88
40 43 49 62 75 90 96 96 92 78 54 39 38 45 62 48 56 41 37 36 34 33 31 29 27 27 22 17 16 14 7 5 6 8 10 12 12 16 17 66 96 99 98
46 58 70 83 99 100 100 97 84 75 72 49 81 93 89 80 67 61 68 50 36 34 34 32 28 26 21 16 14 10 6 6 9 14 15 15 17 28 100 100 100 99 91
61 77 97 100 100 98 97 96 94 90 92 95 96 96 96 90 88 91 74 43 42 39 35 30 27 22 17 14 10 8 7 9 14 20 20 20 44 44 84 100 98 79 99
97 100 100 100 100 96 95 94 94 95 95 94 94 94 95 95 93 64 54 63 64 52 36 32 26 18 14 11 9 8 10 14 20 25 25 28 82 75 93 100 83 76 97
100 99 99 96 95 96 96 95 95 95 95 95 95 94 94 94 84 86 92 93 78 39 34 30 22 16 12 10 10 10 14 18 22 29 31 40 98 100 75 100 100 84 96
96 95 95 96 96 96 96 96 96 96 96 95 95 96 96 97 97 97 96 63 40 39 34 26 19 14 12 11 13 14 18 22 23 29 34 52 99 100 100 82 94 84 81
95 95 95 96 96 96 96 95 95 96 95 96 97 96 97 96 95 90 75 68 56 41 26 20 16 14 14 15 18 19 23 28 26 30 36 64 97 100 100 90 99 100 99
96 96 96 96 95 96 96 95 96 96 97 98 98 98 99 100 100 97 92 78 58 30 23 20 18 17 20 25 25 27 34 38 30 29 35 64 97 100 100 100 100 99 90
96 95 95 95 96 96 96 96 98 99 97 97 99 100 100 100 100 95 78 54 30 25 24 23 22 22 28 32 30 36 41 44 45 34 36 62 92 100 100 100 100 100 98
96 96 96 95 95 96 97 97 97 98 100 100 100 100 97 86 68 51 37 32 29 29 29 28 32 37 42 33 31 44 61 63 57 46 41 70 92 100 100 100 100 99 98
95 93 92 91 91 92 93 93 91 86 78 70 62 57 53 48 44 40 38 35 35 32 34 37 46 52 42 34 45 68 68 70 67 56 52 77 95 100 100 100 100 100 100
Wind_Speed
37 31 33 33 36 38 38 37 34 28 18 18 22 25 25 28 31 32 34 35 36 36 32 35 35 40 37 32 40 37 33 34 38 37 35 34 37 34 34 37 40 41 42
27 22 28 34 33 36 28 30 27 11 16 19 22 25 27 31 33 36 38 37 31 34 40 37 31 32 34 39 36 35 33 33 36 40 38 36 35 34 35 39 42 45 45
30 25 21 23 25 20 17 22 20 16 17 23 25 28 30 33 35 37 34 33 30 35 33 30 31 30 37 37 36 35 34 34 36 40 40 38 38 38 40 43 45 45 47
22 23 23 26 23 20 17 20 20 21 24 28 30 31 34 34 32 31 32 28 33 27 34 34 37 38 38 36 34 33 33 35 36 38 39 40 40 41 45 45 48 50 49
29 26 20 19 18 18 19 20 22 26 30 31 33 36 33 30 30 31 27 30 31 34 32 33 32 34 34 33 35 34 34 35 36 39 42 42 44 45 46 47 49 50 49
23 22 23 21 20 22 23 26 30 31 30 33 34 31 30 30 30 30 31 29 31 30 32 31 30 30 30 33 32 34 35 38 40 42 45 48 49 50 51 51 49 48 50
29 30 26 24 25 27 30 30 27 30 33 32 30 29 29 30 30 30 30 29 30 29 29 29 29 30 32 34 33 34 36 38 40 45 50 52 54 54 55 56 54 53 49
30 30 28 29 30 30 27 29 32 32 29 28 29 30 31 30 30 29 29 28 28 27 28 29 31 32 33 36 37 39 42 44 47 50 53 57 59 59 59 57 55 52 49
28 29 30 29 26 28 30 31 31 29 28 29 30 31 31 30 28 27 27 28 28 29 30 31 32 33 35 37 42 46 50 50 53 56 56 56 56 56 55 52 53 50 46
26 26 25 26 26 28 30 29 28 28 29 30 31 32 31 30 29 27 28 29 30 30 30 30 31 34 36 40 45 49 52 54 56 54 52 51 51 51 47 45 44 46 44
26 26 25 26 28 29 28 28 28 29 30 30 31 32 31 31 30 29 29 29 30 30 30 31 33 37 40 45 48 50 53 55 53 52 50 48 47 47 44 40 37 37 37
25 25 27 28 29 29 29 30 30 31 31 31 33 33 33 32 29 29 29 30 30 31 33 35 38 40 44 47 48 50 52 52 51 49 48 47 47 42 40 37 32 37 36
27 27 29 30 30 30 31 32 32 31 31 32 34 34 34 31 30 29 29 29 31 33 36 38 41 44 46 47 48 49 50 49 49 48 47 46 45 39 35 31 30 29 27
30 31 32 32 33 32 32 31 31 33 34 33 33 34 33 30 29 29 30 31 33 35 38 40 43 45 46 47 47 48 47 47 48 47 46 45 43 37 34 27 27 28 23
34 34 34 35 36 35 34 33 34 35 34 33 31 30 29 28 29 30 31 33 35 38 40 42 44 45 46 46 47 47 47 46 45 44 42 41 38 33 30 25 26 23 26
37 37 38 39 39 37 36 37 37 35 32 30 28 25 26 27 30 33 33 35 38 40 42 43 45 46 47 47 47 47 46 45 43 41 39 38 35 28 23 20 22 17 19
41 41 42 41 39 38 38 34 31 29 27 25 26 27 28 29 31 35 37 39 40 41 43 44 45 46 47 46 46 45 44 42 40 38 36 35 30 22 12 16 14 17 16
45 43 40 39 41 43 41 34 29 27 32 35 31 30 29 30 33 38 40 41 41 42 43 43 45 45 45 45 44 43 41 39 36 34 34 31 25 22 15 10 12 12 16
42 40 41 44 45 38 31 31 31 30 30 30 31 32 33 35 36 39 41 42 43 44 44 44 45 44 44 44 42 40 39 36 34 33 32 29 22 19 17 10 12 12 14
41 45 41 31 26 25 26 26 26 28 29 31 33 36 37 38 40 42 44 44 44 44 44 45 44 44 43 42 40 38 36 33 31 30 30 26 20 18 24 15 11 14 11
27 24 26 26 23 21 22 25 27 30 32 35 37 38 40 41 43 43 43 44 44 44 44 44 44 42 41 40 38 36 34 32 30 28 27 24 19 17 17 24 17 15 15
23 22 20 20 22 25 27 29 31 34 36 37 39 40 42 43 43 43 43 44 44 44 43 43 41 40 39 37 36 34 32 29 26 25 25 21 19 17 14 19 19 15 10
17 19 22 25 28 30 32 34 36 38 39 40 41 42 43 43 43 44 44 44 44 42 41 39 38 37 36 34 33 32 30 27 25 24 22 19 17 16 14 16 16 18 18
22 25 28 31 33 35 37 38 40 41 42 43 43 43 43 43 44 44 43 42 41 39 37 37 36 35 33 32 30 29 28 27 25 22 21 18 16 15 15 15 15 18 19
29 31 34 37 38 40 40 41 42 43 43 44 44 44 44 43 42 41 40 39 38 35 35 34 33 32 31 30 29 28 27 26 23 21 19 17 16 15 18 17 15 17 19
35 37 38 39 40 42 43 44 45 45 44 43 43 42 41 40 39 39 38 36 34 34 33 32 30 29 28 27 26 25 23 21 20 19 17 17 15 14 17 18 16 16 17
Wind_Direction
247 247 251 260 257 249 246 249 262 267 268 270 272 271 278 280 284 287 286 285 286 289 287 294 292 288 293 282 295 279 288 288 289 293 295 296 293 287 283 284 285 286 291
273 262 256 264 258 243 261 255 254 275 266 284 279 278 281 283 283 280 280 280 277 285 292 294 292 286 281 288 289 288 288 288 290 295 296 296 291 286 281 282 283 286 291
258 251 245 262 268 283 277 263 280 280 282 279 280 282 283 282 281 284 285 285 277 282 287 296 281 279 289 291 291 292 294 294 294 295 297 296 293 289 285 284 286 286 287
262 265 271 274 276 290 277 271 271 276 282 285 287 286 286 288 288 286 287 277 280 273 290 281 286 292 289 294 294 291 290 290 290 290 293 296 291 288 281 282 283 289 288
256 262 270 276 276 275 270 273 277 279 282 284 284 288 291 291 288 286 292 280 286 282 289 293 293 288 291 291 291 295 293 293 294 295 296 293 291 288 285 285 284 286 287
256 257 264 267 266 273 276 273 276 279 280 286 289 291 292 291 292 290 286 286 287 295 283 289 290 290 289 291 292 295 298 299 299 299 297 294 293 289 287 284 284 283 283
251 257 262 267 272 272 272 275 277 282 286 289 290 291 291 291 289 288 292 289 291 289 291 292 290 289 290 295 297 295 295 297 299 297 295 294 291 290 285 283 282 281 280
255 256 260 265 267 271 273 279 283 285 287 288 290 289 288 288 289 291 292 291 290 292 290 288 294 297 298 298 299 300 301 303 303 299 295 294 291 289 286 282 280 277 277
252 254 256 260 266 274 279 282 284 287 289 291 290 288 288 290 291 292 289 288 289 290 293 295 298 298 299 301 304 305 305 306 302 300 297 295 293 292 290 285 279 276 274
249 248 252 260 269 273 277 281 283 285 288 286 288 287 288 288 288 288 288 288 291 292 294 297 299 301 302 302 302 303 304 305 303 300 298 297 297 296 293 286 277 269 269
247 253 262 268 273 278 278 278 280 283 284 285 284 285 287 287 289 290 291 291 291 294 297 298 298 298 300 302 304 305 306 306 304 302 302 302 300 298 296 288 274 260 267
255 260 266 271 274 276 278 280 283 283 281 281 282 283 284 285 287 287 288 290 294 296 297 298 298 300 303 304 305 307 307 307 305 304 304 302 300 298 294 289 276 256 259
259 265 270 275 278 277 278 282 283 281 277 276 278 281 282 283 284 286 288 292 294 296 299 299 301 303 304 305 307 308 309 308 307 307 305 302 300 295 289 291 276 265 262
261 267 273 275 275 278 281 282 279 276 277 277 277 278 279 281 285 288 292 295 296 297 298 299 301 302 305 306 307 309 310 310 309 308 307 305 301 293 280 281 289 260 260
263 268 271 274 275 276 277 278 279 277 274 274 274 274 279 285 289 291 291 292 294 296 298 298 299 302 304 306 309 311 312 311 309 308 308 307 305 292 281 275 273 271 265
262 265 267 267 268 270 275 274 270 267 267 268 269 275 281 283 285 286 289 292 295 297 297 298 301 304 307 309 311 312 312 311 310 309 310 311 308 294 280 272 274 258 275
259 259 260 262 262 263 260 259 261 262 264 265 271 274 276 282 285 286 291 294 295 296 297 300 304 306 309 309 310 311 310 310 310 310 312 313 307 291 276 259 257 261 260
257 256 256 256 256 256 255 252 250 255 261 270 270 273 279 282 286 288 290 291 294 298 300 302 304 306 308 308 309 309 309 308 307 307 312 312 300 286 255 249 253 263 240
256 254 250 248 248 252 262 281 281 277 274 276 279 283 285 285 288 289 290 293 296 299 300 303 305 306 307 308 307 307 306 306 304 306 312 311 297 279 239 229 236 252 247
249 245 249 271 281 278 275 274 274 276 282 286 287 288 289 290 290 292 294 297 298 299 301 303 305 305 306 305 305 304 304 302 299 302 309 307 295 275 250 239 231 247 242
268 278 278 278 280 281 278 278 283 286 286 288 289 291 290 291 292 293 295 295 297 299 301 302 303 303 302 303 303 302 301 300 295 297 306 302 291 273 265 236 242 256 241
276 279 280 278 279 283 287 289 290 290 291 292 292 292 292 292 293 293 294 295 297 299 300 302 302 301 302 302 301 300 299 299 294 291 299 296 286 268 257 216 236 227 237
274 276 282 287 288 289 290 290 290 291 292 292 292 292 293 293 293 293 294 296 297 298 300 300 300 301 300 299 299 299 297 299 297 289 294 289 279 258 248 225 227 222 213
284 286 288 290 290 291 292 293 293 293 293 292 292 292 292 292 292 293 294 296 297 299 299 298 299 298 297 297 297 297 297 295 294 290 290 287 278 254 239 221 220 208 208
292 293 293 293 293 293 293 293 293 292 291 291 292 292 292 292 293 294 295 295 297 298 296 297 296 296 295 296 297 298 296 291 289 286 283 278 276 253 229 225 225 222 211
294 293 293 293 294 294 293 292 292 292 292 292 292 292 293 293 293 292 293 296 295 295 296 295 294 294 295 297 298 297 295 292 285 280 278 270 272 255 223 207 208 216 202